カタログに戻る

COSMOS 1818 COOLANT

運用中LEO
NORAD 34175·DEBRIS·🇷🇺 Russia

打ち上げ Feb 1, 1987 から Baikonur Cosmodrome

Loading…

次のパス (今後24時間)

TLE

古いSource: Space-Track

元期: Sep 2, 2026, 20:41 UTC

1 34175U 87011F   26245.86223206  .00000592  00000-0  20835-3 0  9992
2 34175  65.0019 298.3397 0022530 279.4091  80.4452 14.42560046101027

AllMySatでCOSMOS 1818 COOLANTをリアルタイム追跡

Download on the App Store